Weather History for Naples, FL

Change the Weather History Date:

Tuesday, April 23, 2013

  Actual Average Record
Temperature  
Mean Temperature 77 °F 74 °F  
Max Temperature 87 °F 84 °F 92 °F (1973)
Min Temperature 66 °F 64 °F 47 °F (1993)
Degree Days  
Heating Degree Days 0 0  
Month to date heating degree days 0 0  
Since 1 July heating degree days 182 256  
Cooling Degree Days 12 9  
Month to date cooling degree days 267 181  
Year to date cooling degree days 658 548  
Growing Degree Days 26 (Base 50)    
Moisture  
Dew Point 64 °F    
Average Humidity 68    
Maximum Humidity 93    
Minimum Humidity 43    
Precipitation  
Precipitation 0.00 in 0.07 in 0.77 in (1979)
Month to date precipitation 4.21 1.91  
Year to date precipitation 6.65 8.24  
Snow  
Snow 0.00 in - - ()
Month to date snowfall 0.0  
Since 1 July snowfall 0.0  
Snow Depth 0.00 in    
Sea Level Pressure  
Sea Level Pressure 30.02 in    
Wind  
Wind Speed 12 mph (NE)    
Max Wind Speed 18 mph    
Max Gust Speed 25 mph    
Visibility 9 miles    
Events      
T = Trace of Precipitation, MM = Missing Value Source: NWS Daily Summary

Daily Weather History Graph

Daily Weather History Graph

Search for Another Location

Airport:

Trip Planner

Search our weather history database for the weather conditions in past years. The results will help you decide how hot, cold, wet, or windy it might be!

Date:

Astronomy

Apr. 23, 2013 Rise Set
Actual Time 6:56 AM EDT 7:54 PM EDT
Civil Twilight 6:32 AM EDT 8:18 PM EDT
Nautical Twilight 6:04 AM EDT 8:47 PM EDT
Astronomical Twilight 5:35 AM EDT 9:16 PM EDT
Moon 5:58 PM EDT (4/23) 5:10 AM EDT (4/23)
Length of Visible Light 13h 46m
Length of Day
12h 58m
Waxing Gibbous, 94% of the Moon is Illuminated
Apr 23
Waxing Gibbous
Apr 25
Full
May 2
Last Quarter
May 9
New
May 18
First Quarter

Hourly Weather History & Observations

Time (EDT) Temp. Heat Index Dew Point Humidity Pressure Visibility Wind Dir Wind Speed Gust Speed Precip Events Conditions
12:53 AM 70.0 °F - 66.9 °F 90% 30.03 in 10.0 mi ENE 6.9 mph - N/A   Clear
1:53 AM 69.1 °F - 66.9 °F 93% 30.01 in 10.0 mi NE 8.1 mph - N/A   Clear
2:53 AM 69.1 °F - 64.9 °F 87% 29.99 in 10.0 mi NE 10.4 mph - N/A   Clear
3:53 AM 68.0 °F - 64.9 °F 90% 29.99 in 10.0 mi NNE 8.1 mph - N/A   Clear
4:53 AM 66.9 °F - 64.9 °F 93% 29.99 in 9.0 mi NE 9.2 mph - N/A   Clear
5:14 AM 66.2 °F - 64.4 °F 94% 29.99 in 9.0 mi NE 8.1 mph - N/A   Partly Cloudy
5:29 AM 66.2 °F - 64.4 °F 94% 29.99 in 8.0 mi NE 8.1 mph - N/A   Mostly Cloudy
5:53 AM 66.0 °F - 64.9 °F 96% 29.99 in 8.0 mi NE 12.7 mph - N/A   Overcast
6:53 AM 66.9 °F - 64.9 °F 93% 30.00 in 7.0 mi NE 11.5 mph - N/A   Overcast
7:53 AM 66.9 °F - 64.9 °F 93% 30.02 in 6.0 mi ENE 9.2 mph - N/A   Mostly Cloudy
8:53 AM 70.0 °F - 66.0 °F 87% 30.04 in 7.0 mi ENE 9.2 mph - N/A   Mostly Cloudy
9:11 AM 69.8 °F - 66.2 °F 88% 30.04 in 8.0 mi NE 9.2 mph - N/A   Scattered Clouds
9:53 AM 73.9 °F - 66.0 °F 76% 30.05 in 8.0 mi NE 11.5 mph - N/A   Partly Cloudy
10:53 AM 77.0 °F - 66.0 °F 69% 30.06 in 10.0 mi ENE 12.7 mph - N/A   Partly Cloudy
11:53 AM 80.1 °F 82.1 °F 66.0 °F 62% 30.07 in 10.0 mi NNE 12.7 mph - N/A   Partly Cloudy
12:53 PM 82.0 °F 84.1 °F 66.0 °F 58% 30.05 in 10.0 mi ENE 12.7 mph - N/A   Scattered Clouds
1:53 PM 84.0 °F 86.3 °F 66.0 °F 55% 30.03 in 10.0 mi NE 11.5 mph 17.3 mph N/A   Mostly Cloudy
2:53 PM 86.0 °F 87.6 °F 64.9 °F 49% 30.01 in 10.0 mi NE 9.2 mph 16.1 mph N/A   Partly Cloudy
3:53 PM 87.1 °F 87.5 °F 62.1 °F 43% 29.99 in 10.0 mi NE 10.4 mph - N/A   Partly Cloudy
4:53 PM 87.1 °F 87.5 °F 62.1 °F 43% 29.97 in 10.0 mi NE 12.7 mph - N/A   Clear
5:53 PM 84.9 °F 85.9 °F 63.0 °F 48% 29.98 in 10.0 mi NE 12.7 mph - N/A   Clear
6:53 PM 82.0 °F 83.0 °F 62.1 °F 51% 30.00 in 10.0 mi ENE 13.8 mph - N/A   Scattered Clouds
7:53 PM 79.0 °F - 62.1 °F 56% 30.01 in 10.0 mi ENE 16.1 mph - N/A   Clear
8:53 PM 75.9 °F - 61.0 °F 60% 30.04 in 10.0 mi ENE 12.7 mph - N/A   Clear
9:53 PM 73.9 °F - 61.0 °F 64% 30.06 in 10.0 mi ENE 12.7 mph - N/A   Clear
10:53 PM 73.0 °F - 60.1 °F 64% 30.08 in 10.0 mi East 18.4 mph 25.3 mph N/A   Clear
11:53 PM 71.1 °F - 61.0 °F 70% 30.08 in 10.0 mi ENE 15.0 mph - N/A   Clear